H1 CPF 2 NER 2025 11 2 9 306 01 glonass131 H2 1301901 9131 39155 2025 11 2 0 0 0 2025 11 5 23 45 0 900 1 1 0 0 0 1 H9 10 0 60981 0.00000 0 -20750627.424 -12877804.305 7270396.740 10 0 60981 900.00000 0 -21410681.588 -13169485.130 4135975.345 10 0 60981 1800.00000 0 -21765499.316 -13193930.994 920894.677 10 0 60981 2700.00000 0 -21777022.468 -12993216.398 -2312152.861 10 0 60981 3600.00000 0 -21418501.158 -12617135.086 -5500042.215 10 0 60981 4500.00000 0 -20675780.816 -12120878.500 -8580468.936 10 0 60981 5400.00000 0 -19548071.927 -11562491.321 -11493190.784 10 0 60981 6300.00000 0 -18048167.147 -11000214.072 -14181230.879 10 0 60981 7200.00000 0 -16202094.574 -10489828.141 -16592016.246 10 0 60981 8100.00000 0 -14048220.587 -10082118.615 -18678427.056 10 0 60981 9000.00000 0 -11635839.771 -9820565.187 -20399734.064 10 0 60981 9900.00000 0 -9023311.807 -9739361.254 -21722404.394 10 0 60981 10800.00000 0 -6275824.753 -9861846.693 -22620759.121 10 0 60981 11700.00000 0 -3462880.091 -10199421.447 -23077469.678 10 0 60981 12600.00000 0 -655606.485 -10750985.793 -23083883.872 10 0 60981 13500.00000 0 2075984.006 -11502930.112 -22640176.235 10 0 60981 14400.00000 0 4665681.798 -12429673.073 -21755321.296 10 0 60981 15300.00000 0 7053595.448 -13494723.559 -20446892.124 10 0 60981 16200.00000 0 9188392.893 -14652219.412 -18740690.071 10 0 60981 17100.00000 0 11029176.403 -15848875.985 -16670214.968 10 0 60981 18000.00000 0 12546915.494 -17026260.601 -14275988.040 10 0 60981 18900.00000 0 13725381.139 -18123295.739 -11604742.479 10 0 60981 19800.00000 0 14561545.939 -19078884.820 -8708498.872 10 0 60981 20700.00000 0 15065437.350 -19834549.995 -5643544.604 10 0 60981 21600.00000 0 15259453.884 -20336971.577 -2469337.755 10 0 60981 22500.00000 0 15177176.312 -20540323.484 752642.992 10 0 60981 23400.00000 0 14861726.434 -20408308.204 3960080.306 10 0 60981 24300.00000 0 14363744.218 -19915807.632 7091009.811 10 0 60981 25200.00000 0 13739069.166 -19050082.397 10084999.443 10 0 60981 26100.00000 0 13046223.349 -17811470.961 12884295.200 10 0 60981 27000.00000 0 12343800.977 -16213560.349 15434913.060 10 0 60981 27900.00000 0 11687872.622 -14282821.725 17687657.993 10 0 60981 28800.00000 0 11129511.196 -12057725.636 19599052.525 10 0 60981 29700.00000 0 10712541.477 -9587372.505 21132158.949 10 0 60981 30600.00000 0 10471605.761 -6929693.266 22257281.106 10 0 60981 31500.00000 0 10430625.453 -4149292.194 22952533.496 10 0 60981 32400.00000 0 10601722.503 -1315018.290 23204267.520 10 0 60981 33300.00000 0 10984646.150 1502637.390 23007346.717 10 0 60981 34200.00000 0 11566730.261 4234213.737 22365265.044 10 0 60981 35100.00000 0 12323385.058 6813912.895 21290104.574 10 0 60981 36000.00000 0 13219105.348 9182087.748 19802331.464 10 0 60981 36900.00000 0 14208955.988 11287481.520 17930431.705 10 0 60981 37800.00000 0 15240475.289 13089126.711 15710390.958 10 0 60981 38700.00000 0 16255919.086 14557823.747 13185025.777 10 0 60981 39600.00000 0 17194753.098 15677136.333 10403176.645 10 0 60981 40500.00000 0 17996289.689 16443860.129 7418776.341 10 0 60981 41400.00000 0 18602357.880 16867943.127 4289810.240 10 0 60981 42300.00000 0 18959892.778 16971859.239 1077188.135 10 0 60981 43200.00000 0 19023332.961 16789460.041 -2156450.374 10 0 60981 44100.00000 0 18756721.569 16364352.391 -5347972.626 10 0 60981 45000.00000 0 18135418.936 15747870.520 -8435005.991 10 0 60981 45900.00000 0 17147350.896 14996729.335 -11357180.593 10 0 60981 46800.00000 0 15793736.803 14170459.996 -14057334.895 10 0 60981 47700.00000 0 14089263.877 13328738.691 -16482657.911 10 0 60981 48600.00000 0 12061698.696 12528724.447 -18585743.314 10 0 60981 49500.00000 0 9750951.209 11822521.343 -20325532.770 10 0 60981 50400.00000 0 7207630.638 11254874.981 -21668128.542 10 0 60981 51300.00000 0 4491154.614 10861202.453 -22587458.619 10 0 60981 52200.00000 0 1667492.100 10666040.150 -23065781.211 10 0 60981 53100.00000 0 -1193363.836 10681975.145 -23094019.211 10 0 60981 54000.00000 0 -4020086.190 10909104.564 -22671919.163 10 0 60981 54900.00000 0 -6742753.648 11335044.260 -21808033.108 10 0 60981 55800.00000 0 -9295524.672 11935484.325 -20519525.523 10 0 60981 56700.00000 0 -11619134.684 12675265.568 -18831811.077 10 0 60981 57600.00000 0 -13663113.258 13509929.021 -16778032.325 10 0 60981 58500.00000 0 -15387630.665 14387670.781 -14398389.433 10 0 60981 59400.00000 0 -16764899.407 15251617.809 -11739336.789 10 0 60981 60300.00000 0 -17780075.461 16042327.380 -8852663.531 10 0 60981 61200.00000 0 -18431625.157 16700404.143 -5794477.083 10 0 60981 62100.00000 0 -18731146.060 17169124.535 -2624110.117 10 0 60981 63000.00000 0 -18702652.813 17396958.737 597027.541 10 0 60981 63900.00000 0 -18381360.867 17339885.236 3806629.965 10 0 60981 64800.00000 0 -17812021.380 16963402.247 6942686.896 10 0 60981 65700.00000 0 -17046878.541 16244153.232 9944664.293 10 0 60981 66600.00000 0 -16143335.492 15171099.892 12754652.268 10 0 60981 67500.00000 0 -15161426.345 13746194.722 15318460.093 10 0 60981 68400.00000 0 -14161199.104 11984525.600 17586639.179 10 0 60981 69300.00000 0 -13200117.436 9913926.267 19515416.347 10 0 60981 70200.00000 0 -12330588.064 7574067.955 21067521.482 10 0 60981 71100.00000 0 -11597715.247 5015068.126 22212895.363 10 0 60981 72000.00000 0 -11037374.570 2295671.641 22929265.343 10 0 60981 72900.00000 0 -10674685.418 -518923.277 23202578.630 10 0 60981 73800.00000 0 -10522945.580 -3359507.533 23027284.889 10 0 60981 74700.00000 0 -10583072.996 -6155474.219 22406462.130 10 0 60981 75600.00000 0 -10843579.269 -8837497.041 21351782.152 10 0 60981 76500.00000 0 -11281078.075 -11340165.571 19883314.260 10 0 60981 77400.00000 0 -11861309.688 -13604469.630 18029168.630 10 0 60981 78300.00000 0 -12540641.410 -15580030.355 15824983.517 10 0 60981 79200.00000 0 -13267983.479 -17226984.916 13313263.431 10 0 60981 80100.00000 0 -13987042.053 -18517445.260 10542578.568 10 0 60981 81000.00000 0 -14638815.771 -19436468.210 7566638.852 10 0 60981 81900.00000 0 -15164231.027 -19982494.253 4443259.062 10 0 60981 82800.00000 0 -15506804.044 -20167234.434 1233234.453 10 0 60981 83700.00000 0 -15615215.545 -20015008.278 -2000851.148 10 0 60981 84600.00000 0 -15445686.552 -19561559.316 -5195860.622 10 0 60981 85500.00000 0 -14964051.587 -18852397.665 -8289356.424 10 0 60982 0.00000 0 -14147438.143 -17940740.130 -11220844.145 10 0 60982 900.00000 0 -12985477.447 -16885135.569 -13932981.480 10 0 60982 1800.00000 0 -11480993.431 -15746879.157 -16372722.453 10 0 60982 2700.00000 0 -9650136.994 -14587325.715 -18492377.331 10 0 60982 3600.00000 0 -7521959.331 -13465219.477 -20250561.471 10 0 60982 4500.00000 0 -5137441.234 -12434155.201 -21613014.609 10 0 60982 5400.00000 0 -2548019.436 -11540279.948 -22553273.433 10 0 60982 6300.00000 0 186327.369 -10820333.870 -23053184.104 10 0 60982 7200.00000 0 2999351.259 -10300113.125 -23103245.135 10 0 60982 8100.00000 0 5821070.053 -9993419.229 -22702774.988 10 0 60982 9000.00000 0 8580457.231 -9901537.779 -21859902.554 10 0 60982 9900.00000 0 11208173.524 -10013266.377 -20591382.529 10 0 60982 10800.00000 0 13639225.857 -10305487.956 -18922241.252 10 0 60982 11700.00000 0 15815443.184 -10744262.432 -16885261.932 10 0 60982 12600.00000 0 17687667.137 -11286387.805 -14520321.239 10 0 60982 13500.00000 0 19217568.154 -11881362.315 -11873591.960 10 0 60982 14400.00000 0 20379013.982 -12473662.851 -8996628.705 10 0 60982 15300.00000 0 21158936.597 -13005242.156 -5945355.616 10 0 60982 16200.00000 0 21557664.756 -13418138.868 -2778976.497 10 0 60982 17100.00000 0 21588711.710 -13657090.523 441171.185 10 0 60982 18000.00000 0 21278030.072 -13672040.144 3652796.325 10 0 60982 18900.00000 0 20662767.588 -13420432.187 6793845.992 10 0 60982 19800.00000 0 19789577.762 -12869202.816 9803687.077 10 0 60982 20700.00000 0 18712556.984 -11996382.471 12624256.327 10 0 60982 21600.00000 0 17490894.588 -10792244.852 15201158.409 10 0 60982 22500.00000 0 16186333.368 -9259955.081 17484692.812 10 0 60982 23400.00000 0 14860545.287 -7415690.100 19430791.871 10 0 60982 24300.00000 0 13572530.120 -5288225.685 21001853.864 10 0 60982 25200.00000 0 12376143.529 -2918005.760 22167456.915 10 0 60982 26100.00000 0 11317855.779 -355730.453 22904941.300 10 0 60982 27000.00000 0 10434832.935 2339481.413 23199849.763 10 0 60982 27900.00000 0 9753419.586 5102282.540 23046217.525 10 0 60982 28800.00000 0 9288086.131 7863552.776 22446705.802 10 0 60982 29700.00000 0 9040885.149 10553021.673 21412575.013 10 0 60982 30600.00000 0 9001440.868 13101952.145 19963496.275 10 0 60982 31500.00000 0 9147474.156 15445775.946 18127202.422 10 0 60982 32400.00000 0 9445843.351 17526572.741 15938982.601 10 0 60982 33300.00000 0 9854059.692 19295289.853 13441027.419 10 0 60982 34200.00000 0 10322215.807 20713609.381 10681634.782 10 0 60982 35100.00000 0 10795247.678 21755383.216 7714289.628 10 0 60982 36000.00000 0 11215435.505 22407573.762 4596633.886 10 0 60982 36900.00000 0 11525037.623 22670658.561 1389345.927 10 0 60982 37800.00000 0 11668944.943 22558479.538 -1845048.596 10 0 60982 38700.00000 0 11597241.392 22097541.401 -5043410.496 10 0 60982 39600.00000 0 11267559.034 21325787.573 -8143239.646 10 0 60982 40500.00000 0 10647124.773 20290904.998 -11083919.813 10 0 60982 41400.00000 0 9714408.438 19048229.999 -13807928.909 10 0 60982 42300.00000 0 8460299.224 17658345.034 -16261988.360 10 0 60982 43200.00000 0 6888757.929 16184469.940 -18398126.688 10 0 60982 44100.00000 0 5016915.364 14689760.214 -20174634.411 10 0 60982 45000.00000 0 2874611.552 13234628.867 -21556890.027 10 0 60982 45900.00000 0 503394.766 11874206.948 -22518040.028 10 0 60982 46800.00000 0 -2044977.176 10656051.385 -23039519.405 10 0 60982 47700.00000 0 -4710469.426 9618197.470 -23111402.910 10 0 60982 48600.00000 0 -7427054.177 8787637.823 -22732581.194 10 0 60982 49500.00000 0 -10125249.318 8179290.685 -21910759.864 10 0 60982 50400.00000 0 -12734804.358 7795499.012 -20662283.251 10 0 60982 51300.00000 0 -15187420.721 7626078.722 -19011788.311 10 0 60982 52200.00000 0 -17419392.749 7648910.939 -16991697.421 10 0 60982 53100.00000 0 -19374059.807 7831050.060 -14641561.900 10 0 60982 54000.00000 0 -21003968.555 8130297.799 -12007270.821 10 0 60982 54900.00000 0 -22272657.250 8497174.184 -9140141.973 10 0 60982 55800.00000 0 -23155990.209 8877200.273 -6095913.845 10 0 60982 56700.00000 0 -23642989.769 9213395.016 -2933658.984 10 0 60982 57600.00000 0 -23736134.156 9448880.398 285359.867 10 0 60982 58500.00000 0 -23451111.872 9529485.255 3498868.758 10 0 60982 59400.00000 0 -22816045.540 9406238.915 6644774.393 10 0 60982 60300.00000 0 -21870219.762 9037650.965 9662346.865 10 0 60982 61200.00000 0 -20662367.441 8391682.799 12493371.796 10 0 60982 62100.00000 0 -19248586.672 7447329.592 15083251.422 10 0 60982 63000.00000 0 -17689974.751 6195747.453 17382035.399 10 0 60982 63900.00000 0 -16050076.913 4640879.144 19345363.505 10 0 60982 64800.00000 0 -14392254.428 2799551.984 20935304.144 10 0 60982 65700.00000 0 -12777079.611 701042.778 22121074.265 10 0 60982 66600.00000 0 -11259864.073 -1613874.029 22879628.247 10 0 60982 67500.00000 0 -9888421.116 -4094358.064 23196105.238 10 0 60982 68400.00000 0 -8701153.871 -6681358.437 23064126.535 10 0 60982 69300.00000 0 -7725547.925 -9309819.320 22485936.740 10 0 60982 70200.00000 0 -6977131.100 -11911147.782 21472384.724 10 0 60982 71100.00000 0 -6458944.443 -14415844.643 20042742.906 10 0 60982 72000.00000 0 -6161547.864 -16756191.678 18224365.917 10 0 60982 72900.00000 0 -6063562.102 -18868885.194 16052192.605 10 0 60982 73800.00000 0 -6132726.409 -20697507.058 13568098.175 10 0 60982 74700.00000 0 -6327429.658 -22194729.819 10820106.461 10 0 60982 75600.00000 0 -6598652.180 -23324162.523 7861475.401 10 0 60982 76500.00000 0 -6892237.593 -24061757.976 4749671.855 10 0 60982 77400.00000 0 -7151398.889 -24396719.930 1545254.940 10 0 60982 78300.00000 0 -7319352.118 -24331869.518 -1689310.381 10 0 60982 79200.00000 0 -7341964.461 -23883453.167 -4890885.494 10 0 60982 80100.00000 0 -7170301.981 -23080398.263 -7996910.447 10 0 60982 81000.00000 0 -6762965.960 -21963046.954 -10946649.787 10 0 60982 81900.00000 0 -6088115.366 -20581421.395 -13682405.083 10 0 60982 82800.00000 0 -5125086.382 -18993094.435 -16150667.795 10 0 60982 83700.00000 0 -3865537.385 -17260757.161 -18303187.491 10 0 60982 84600.00000 0 -2314068.488 -15449587.990 -20097932.428 10 0 60982 85500.00000 0 -488287.819 -13624536.557 -21499922.120 10 0 60983 0.00000 0 1581678.909 -11847639.201 -22481914.610 10 0 60983 900.00000 0 3854216.070 -10175479.880 -23024935.227 10 0 60983 1800.00000 0 6277736.379 -8656906.778 -23118635.642 10 0 60983 2700.00000 0 8792628.530 -7331097.614 -22761478.951 10 0 60983 3600.00000 0 11333548.558 -6226056.567 -21960747.207 10 0 60983 4500.00000 0 13831958.691 -5357603.241 -20732373.613 10 0 60983 5400.00000 0 16218806.284 -4728893.784 -19100604.511 10 0 60983 6300.00000 0 18427230.312 -4330491.091 -17097499.757 10 0 60983 7200.00000 0 20395182.376 -4140977.658 -14762283.193 10 0 60983 8100.00000 0 22067853.527 -4128081.744 -12140557.612 10 0 60983 9000.00000 0 23399807.036 -4250266.148 -9283401.017 10 0 60983 9900.00000 0 24356730.092 -4458709.906 -6246362.951 10 0 60983 10800.00000 0 24916733.846 -4699597.316 -3088381.164 10 0 60983 11700.00000 0 25071150.317 -4916616.544 129359.986 10 0 60983 12600.00000 0 24824795.734 -5053562.059 3344607.343 10 0 60983 13500.00000 0 24195691.948 -5056931.582 6495230.726 10 0 60983 14400.00000 0 23214259.745 -4878409.110 9520406.631 10 0 60983 15300.00000 0 21922019.277 -4477130.884 12361772.377 10 0 60983 16200.00000 0 20369852.569 -3821640.542 14964530.155 10 0 60983 17100.00000 0 18615900.493 -2891452.689 17278481.710 10 0 60983 18000.00000 0 16723180.931 -1678160.262 19258975.737 10 0 60983 18900.00000 0 14757025.719 -186039.595 20867751.788 10 0 60983 19800.00000 0 12782440.935 1567872.671 22073666.259 10 0 60983 20700.00000 0 10861497.996 3554235.478 22853287.862 10 0 60983 21600.00000 0 9050861.689 5732375.335 23191351.997 10 0 60983 22500.00000 0 7399555.902 8051736.962 23081065.529 10 0 60983 23400.00000 0 5947058.494 10453755.707 22524255.566 10 0 60983 24300.00000 0 4721803.780 12874077.578 21531358.210 10 0 60983 25200.00000 0 3740155.009 15245038.087 20121245.621 10 0 60983 26100.00000 0 3005890.471 17498299.814 18320892.387 10 0 60983 27000.00000 0 2510226.094 19567541.130 16164884.957 10 0 60983 27900.00000 0 2232375.395 21391085.309 13694780.828 10 0 60983 28800.00000 0 2140625.285 22914360.434 10958327.301 10 0 60983 29700.00000 0 2193884.284 24092086.398 8008552.715 10 0 60983 30600.00000 0 2343639.278 24890095.610 4902746.186 10 0 60983 31500.00000 0 2536238.846 25286708.571 1701344.852 10 0 60983 32400.00000 0 2715406.365 25273603.730 -1533249.730 10 0 60983 33300.00000 0 2824875.305 24856142.284 -4737902.165 10 0 60983 34200.00000 0 2811032.969 24053131.848 -7849995.184 10 0 60983 35100.00000 0 2625457.816 22896037.264 -10808676.421 10 0 60983 36000.00000 0 2227239.526 21427670.978 -13556073.166 10 0 60983 36900.00000 0 1584980.097 19700418.297 -16038448.711 10 0 60983 37800.00000 0 678388.006 17774073.325 -18207275.200 10 0 60983 38700.00000 0 -500604.777 15713378.396 -20020199.907 10 0 60983 39600.00000 0 -1947252.148 13585372.725 -21441884.393 10 0 60983 40500.00000 0 -3643955.795 11456664.000 -22444699.194 10 0 60983 41400.00000 0 -5560781.662 9390739.523 -23009260.169 10 0 60983 42300.00000 0 -7656508.842 7445431.257 -23124796.372 10 0 60983 43200.00000 0 -9880165.845 5670641.741 -22789343.250 10 0 60983 44100.00000 0 -12172988.439 4106425.916 -22009758.805 10 0 60983 45000.00000 0 -14470715.468 2781507.988 -20801564.165 10 0 60983 45900.00000 0 -16706125.173 1712293.248 -19188613.654 10 0 60983 46800.00000 0 -18811704.862 902413.271 -17202602.783 10 0 60983 47700.00000 0 -20722341.778 342820.073 -14882425.720 10 0 60983 48600.00000 0 -22377922.816 12421.467 -12273396.525 10 0 60983 49500.00000 0 -23725735.266 -120772.769 -9426350.791 10 0 60983 50400.00000 0 -24722569.702 -98045.457 -6396646.406 10 0 60983 51300.00000 0 -25336439.164 32022.355 -3243083.610 10 0 60983 52200.00000 0 -25547845.175 215848.772 -26765.703 10 0 60983 53100.00000 0 -25350540.268 397353.551 3190077.568 10 0 60983 54000.00000 0 -24751757.636 520560.035 6345281.666 10 0 60983 54900.00000 0 -23771900.500 532187.491 9377931.929 10 0 60983 55800.00000 0 -22443705.795 384125.775 12229519.689 10 0 60983 56700.00000 0 -20810918.006 35689.726 14845049.260 10 0 60983 57600.00000 0 -18926528.541 -544439.989 17174076.435 10 0 60983 58500.00000 0 -16850653.288 -1376669.729 19171660.516 10 0 60983 59400.00000 0 -14648135.211 -2469403.554 20799213.590 10 0 60983 60300.00000 0 -12385969.602 -3818457.286 22025232.519 10 0 60983 61200.00000 0 -10130656.516 -5407001.282 22825900.978 10 0 60983 62100.00000 0 -7945587.790 -7206036.027 23185550.864 10 0 60983 63000.00000 0 -5888574.712 -9175383.333 23096974.469 10 0 60983 63900.00000 0 -4009617.036 -11265154.965 22561580.921 10 0 60983 64800.00000 0 -2349004.692 -13417641.164 21589392.734 10 0 60983 65700.00000 0 -935830.517 -15569543.984 20198880.707 10 0 60983 66600.00000 0 213023.844 -17654465.725 18416637.999 10 0 60983 67500.00000 0 1093385.636 -19605551.384 16276897.028 10 0 60983 68400.00000 0 1713750.032 -21358176.631 13820895.716 10 0 60983 69300.00000 0 2094700.420 -22852569.674 11096102.753 10 0 60983 70200.00000 0 2267812.477 -24036256.907 8155314.643 10 0 60983 71100.00000 0 2274086.630 -24866228.366 5055640.394 10 0 60983 72000.00000 0 2161974.036 -25310729.801 1857392.720 10 0 60983 72900.00000 0 1985079.304 -25350603.197 -1377092.705 10 0 60983 73800.00000 0 1799637.871 -24980116.278 -4584686.200 10 0 60983 74700.00000 0 1661876.515 -24207243.206 -7702715.670 10 0 60983 75600.00000 0 1625371.271 -23053382.285 -10670214.311 10 0 60983 76500.00000 0 1738517.775 -21552521.010 -13429137.575 10 0 60983 77400.00000 0 2042224.547 -19749883.002 -15925522.938 10 0 60983 78300.00000 0 2567930.187 -17700114.123 -18110567.344 10 0 60983 79200.00000 0 3336031.339 -15465085.263 -19941599.083 10 0 60983 80100.00000 0 4354790.244 -13111405.943 -21382923.475 10 0 60983 81000.00000 0 5619769.532 -10707755.262 -22406524.825 10 0 60983 81900.00000 0 7113818.830 -8322144.197 -22992610.622 10 0 60983 82800.00000 0 8807613.615 -6019225.770 -23129987.695 10 0 60983 83700.00000 0 10660722.808 -3857766.718 -22816263.891 10 0 60983 84600.00000 0 12623158.958 -1888386.699 -22057872.784 10 0 60983 85500.00000 0 14637344.297 -151658.863 -20869922.650 10 0 60984 0.00000 0 16640408.451 1323350.441 -19275874.787 10 0 60984 900.00000 0 18566721.148 2520045.061 -17307058.519 10 0 60984 1800.00000 0 20350550.203 3434726.669 -15002036.524 10 0 60984 2700.00000 0 21928736.612 4076475.073 -12405831.791 10 0 60984 3600.00000 0 23243272.384 4466488.145 -9569034.803 10 0 60984 4500.00000 0 24243675.145 4636913.627 -6546808.762 10 0 60984 5400.00000 0 24889061.501 4629225.054 -3397813.116 10 0 60984 6300.00000 0 25149834.361 4492212.706 -183066.676 10 0 60984 7200.00000 0 25008915.891 4279675.871 3035227.662 10 0 60984 8100.00000 0 24462476.803 4047914.438 6194874.348 10 0 60984 9000.00000 0 23520133.617 3853125.397 9234870.684 10 0 60984 9900.00000 0 22204607.318 3748813.096 12096564.825 10 0 60984 10800.00000 0 20550858.691 3783320.885 14724765.644 10 0 60984 11700.00000 0 18604736.679 3997586.365 17068785.023 10 0 60984 12600.00000 0 16421195.532 4423212.974 19083394.511 10 0 60984 13500.00000 0 14062153.601 5080937.594 20729679.964 10 0 60984 14400.00000 0 11594080.736 5979557.775 21975779.563 10 0 60984 15300.00000 0 9085412.019 7115363.622 22797492.415 10 0 60984 16200.00000 0 6603892.370 8472099.154 23178746.992 10 0 60984 17100.00000 0 4213959.468 10021456.709 23111920.687 10 0 60984 18000.00000 0 1974271.138 11724086.441 22598003.895 10 0 60984 18900.00000 0 -64522.062 13531082.102 21646604.367 10 0 60984 19800.00000 0 -1861667.706 15385884.623 20275789.933 10 0 60984 20700.00000 0 -3387787.521 17226527.503 18511770.327 10 0 60984 21600.00000 0 -4625876.633 18988133.226 16388421.596 10 0 60984 22500.00000 0 -5571783.237 20605558.625 13946659.477 10 0 60984 23400.00000 0 -6234147.002 22016079.700 11233671.250 10 0 60984 24300.00000 0 -6633797.044 23162003.534 8302018.655 10 0 60984 25200.00000 0 -6802633.060 23993096.715 5208627.609 10 0 60984 26100.00000 0 -6782035.509 24468726.195 2013683.426 10 0 60984 27000.00000 0 -6620871.318 24559619.820 -1220547.028 10 0 60984 27900.00000 0 -6373179.645 24249169.200 -4430942.590 10 0 60984 28800.00000 0 -6095636.797 23534216.844 -7554778.967 10 0 60984 29700.00000 0 -5844909.643 22425291.469 -10530977.313 10 0 60984 30600.00000 0 -5675012.383 20946279.333 -13301323.346 10 0 60984 31500.00000 0 -5634781.738 19133544.056 -15811630.530 10 0 60984 32400.00000 0 -5765580.758 17034531.552 -18012822.071 10 0 60984 33300.00000 0 -6099331.461 14705919.239 -19861908.443 10 0 60984 34200.00000 0 -6656962.033 12211388.583 -21322839.587 10 0 60984 35100.00000 0 -7447336.030 9619116.236 -22367214.169 10 0 60984 36000.00000 0 -8466709.719 6999090.890 -22974831.629 10 0 60984 36900.00000 0 -9698740.576 4420370.073 -23134076.591 10 0 60984 37800.00000 0 -11115045.863 1948392.987 -22842129.010 10 0 60984 38700.00000 0 -12676286.531 -357537.650 -22104997.375 10 0 60984 39600.00000 0 -14333729.136 -2446499.764 -20937376.058 10 0 60984 40500.00000 0 -16031218.340 -4277829.596 -19362331.546 10 0 60984 41400.00000 0 -17707475.426 -5822556.591 -17410825.694 10 0 60984 42300.00000 0 -19298624.963 -7064338.488 -15121087.243 10 0 60984 43200.00000 0 -20740842.688 -7999861.087 -12537845.638 10 0 60984 44100.00000 0 -21973013.298 -8638689.844 -9711443.578 10 0 60984 45000.00000 0 -22939287.025 -9002583.422 -6696846.789 10 0 60984 45900.00000 0 -23591428.852 -9124301.660 -3552571.087 10 0 60984 46800.00000 0 -23890863.423 -9045961.084 -339547.948 10 0 60984 47700.00000 0 -23810331.865 -8817009.430 2880049.408 10 0 60984 48600.00000 0 -23335093.221 -8491905.817 6043997.180 10 0 60984 49500.00000 0 -22463622.178 -8127604.656 9091207.310 10 0 60984 50400.00000 0 -21207775.601 -7780948.856 11962887.321 10 0 60984 51300.00000 0 -19592422.065 -7506080.896 14603653.011 10 0 60984 52200.00000 0 -17654550.262 -7351979.092 16962574.466 10 0 60984 53100.00000 0 -15441893.102 -7360220.841 18994137.278 10 0 60984 54000.00000 0 -13011123.594 -7563065.118 20659102.492 10 0 60984 54900.00000 0 -10425695.558 -7981933.432 21925250.598 10 0 60984 55800.00000 0 -7753416.317 -8626352.340 22767996.673 10 0 60984 56700.00000 0 -5063849.211 -9493402.068 23170865.849 10 0 60984 57600.00000 0 -2425650.588 -10567695.506 23125820.273 10 0 60984 58500.00000 0 96051.077 -11821890.508 22633430.865 10 0 60984 59400.00000 0 2442127.636 -13217716.889 21702889.510 10 0 60984 60300.00000 0 4561674.388 -14707478.414 20351859.655 10 0 60984 61200.00000 0 6413892.360 -16235970.403 18606165.910 10 0 60984 62100.00000 0 7969551.468 -17742735.863 16499325.988 10 0 60984 63000.00000 0 9211972.852 -19164568.322 14071931.228 10 0 60984 63900.00000 0 10137487.897 -20438158.159 11370885.044 10 0 60984 64800.00000 0 10755353.065 -21502772.073 8448511.765 10 0 60984 65700.00000 0 11087122.270 -22302852.635 5361551.405 10 0 60984 66600.00000 0 11165501.648 -22790426.987 2170058.982 10 0 60984 67500.00000 0 11032733.984 -22927220.795 -1063770.356 10 0 60984 68400.00000 0 10738580.723 -22686385.233 -4276826.814 10 0 60984 69300.00000 0 10337987.512 -22053760.777 -7406336.628 10 0 60984 70200.00000 0 9888533.559 -21028621.249 -10391111.464 10 0 60984 71100.00000 0 9447775.081 -19623863.863 -13172769.655 10 0 60984 72000.00000 0 9070598.170 -17865635.204 -15696902.753 10 0 60984 72900.00000 0 8806696.277 -15792407.691 -17914162.080 10 0 60984 73800.00000 0 8698282.095 -13453545.158 -19781241.813 10 0 60984 74700.00000 0 8778133.253 -10907418.490 -21261737.703 10 0 60984 75600.00000 0 9068056.474 -8219151.732 -22326863.571 10 0 60984 76500.00000 0 9577836.202 -5458094.830 -22956011.204 10 0 60984 77400.00000 0 10304712.388 -2695130.634 -23137143.013 10 0 60984 78300.00000 0 11233408.886 69.697 -22867010.659 10 0 60984 79200.00000 0 12336710.036 2561727.255 -22151196.792 10 0 60984 80100.00000 0 13576559.313 4930459.709 -21003980.792 10 0 60984 81000.00000 0 14905631.823 7055505.563 -19448033.117 10 0 60984 81900.00000 0 16269312.384 8896577.126 -17513946.193 10 0 60984 82800.00000 0 17607994.217 10425267.258 -15239612.981 10 0 60984 83700.00000 0 18859600.197 11625954.349 -12669467.131 10 0 60984 84600.00000 0 19962219.887 12496171.363 -9853601.015 10 0 60984 85500.00000 0 20856751.394 13046427.383 -6846780.078 99